GW1942 Weather Reports


time (UTC)temp
F
wind
direction
speed
knots
gust
knots
rain 1hr
in
rain 24hr
in
rain mn
in
humidity
%
barometer
mb
20260505230019 69 132 0.0 2.6 0.00 0.00 0.00 24 1013.1
20260505224517 68 32 1.7 7.8 0.00 0.00 0.00 22 1013.4
20260505223016 68 298 2.6 6.1 0.00 0.00 0.00 21 1013.4
20260505221515 68 333 1.7 4.3 0.00 0.00 0.00 22 1013.6
20260505220028 68 285 0.9 7.8 0.00 0.00 0.00 23 1013.8
20260505214518 68 64 4.3 11.3 0.00 0.00 0.00 22 1013.9
20260505213010 69 340 1.7 4.3 0.00 0.00 0.00 22 1014.0
20260505211511 67 120 1.7 5.2 0.00 0.00 0.00 22 1014.1
20260505210006 68 307 3.5 8.7 0.00 0.00 0.00 23 1014.0
20260505204506 67 154 1.7 6.1 0.00 0.00 0.00 26 1014.3
20260505203002 67 307 4.3 9.6 0.00 0.00 0.00 23 1014.4
20260505201501 66 342 4.3 9.6 0.00 0.00 0.00 23 1014.5
20260505200110 67 338 2.6 7.0 0.00 0.00 0.00 24 1014.5
20260505194557 66 39 0.9 6.1 0.00 0.00 0.00 25 1014.5
20260505193102 64 84 0.0 5.2 0.00 0.00 0.00 27 1014.7
20260505191602 63 149 2.6 6.1 0.00 0.00 0.00 28 1014.7
20260505190053 64 299 0.9 4.3 0.00 0.00 0.00 28 1014.9
20260505184551 63 285 1.7 4.3 0.00 0.00 0.00 30 1015.0
20260505183048 63 307 1.7 6.1 0.00 0.00 0.00 29 1015.2
20260505181555 62 118 1.7 7.8 0.00 0.00 0.00 34 1015.3
20260505180045 62 333 1.7 5.2 0.00 0.00 0.00 29 1015.6
20260505174542 61 226 0.9 3.5 0.00 0.00 0.00 36 1015.7
20260505173040 60 61 0.0 1.7 0.00 0.00 0.00 34 1016.0
20260505171537 58 56 0.9 4.3 0.00 0.00 0.00 35 1016.1
20260505170034 57 281 0.0 3.5 0.00 0.00 0.00 36 1016.2
20260505164530 56 46 0.9 3.5 0.00 0.00 0.00 41 1016.4
20260505163034 55 162 0.9 2.6 0.00 0.00 0.00 47 1016.6
20260505161537 53 9 0.9 3.5 0.00 0.00 0.00 52 1016.6
20260505153018 50 300 0.0 0.9 0.00 0.00 0.00 57 1016.9
20260505151517 49 259 0.0 0.9 0.00 0.00 0.00 60 1017.0
20260505124510 31 136 0.0 0.0 0.00 0.00 0.00 89 1016.1
20260505123004 31 184 0.0 0.9 0.00 0.00 0.00 88 1015.9
20260505121505 31 133 0.0 0.0 0.00 0.00 0.00 88 1015.8
20260505120113 32 133 0.0 0.9 0.00 0.00 0.00 86 1015.6
20260505114556 32 132 0.0 0.9 0.00 0.00 0.00 86 1015.6
20260505113110 32 148 0.0 0.9 0.00 0.00 0.00 86 1015.4
20260505111555 33 106 0.0 0.9 0.00 0.00 0.00 87 1015.5
20260505101550 36 136 0.0 1.7 0.00 0.00 0.00 80 1015.4
20260505100042 35 126 0.0 0.9 0.00 0.00 0.00 83 1015.3
20260505094541 36 115 0.0 0.9 0.00 0.00 0.00 82 1015.2
20260505093040 36 132 0.0 0.0 0.00 0.00 0.00 83 1015.3
20260505091539 36 136 0.0 0.9 0.00 0.00 0.00 83 1015.1
20260505090042 36 140 0.0 0.0 0.00 0.00 0.00 82 1015.2
20260505084539 38 158 0.0 0.9 0.00 0.00 0.00 79 1015.0
20260505083030 38 174 0.0 0.0 0.00 0.00 0.00 80 1014.9
20260505081527 39 200 0.0 0.9 0.00 0.00 0.00 78 1014.8
20260505080039 40 161 0.0 0.0 0.00 0.00 0.00 76 1014.9
20260505074527 40 127 0.0 0.9 0.00 0.00 0.00 77 1014.8
20260505073028 41 240 0.0 0.9 0.00 0.00 0.00 74 1014.7
20260505071517 42 114 0.0 0.9 0.00 0.00 0.00 74 1014.5
20260505070013 43 116 0.0 2.6 0.00 0.00 0.00 70 1014.2
20260505064509 46 76 0.0 0.9 0.00 0.00 0.00 60 1014.2
20260505063007 46 131 0.0 1.7 0.00 0.00 0.00 63 1014.1
20260505061503 50 71 0.0 0.9 0.00 0.00 0.00 54 1013.9
20260505060059 51 84 0.0 3.5 0.00 0.00 0.00 51 1014.0
20260505054559 51 85 1.7 3.5 0.00 0.00 0.00 53 1013.7
20260505053056 52 112 2.6 5.2 0.00 0.00 0.00 50 1013.5
20260505051555 54 35 2.6 7.0 0.00 0.00 0.00 47 1013.3
20260505041550 57 93 5.2 11.3 0.00 0.00 0.00 42 1012.1
20260505040054 58 57 2.6 7.8 0.00 0.00 0.00 42 1011.8
20260505034552 58 86 1.7 10.4 0.00 0.00 0.00 43 1011.5
20260505033048 58 122 3.5 7.8 0.00 0.00 0.00 41 1011.1
20260505031556 59 77 3.5 7.8 0.00 0.00 0.00 42 1010.8
20260505030049 60 89 5.2 10.4 0.00 0.00 0.00 41 1010.6
20260505024551 61 89 4.3 9.6 0.00 0.00 0.00 40 1010.4
20260505023048 62 76 5.2 8.7 0.00 0.00 0.00 39 1010.2
20260505021547 65 79 6.1 10.4 0.00 0.00 0.00 36 1010.1
20260505020046 66 81 3.5 8.7 0.00 0.00 0.00 36 1010.0
20260505014601 66 108 4.3 8.7 0.00 0.00 0.00 36 1010.0
20260505013044 67 63 1.7 7.0 0.00 0.00 0.00 34 1010.0
20260505011549 67 98 6.1 12.2 0.00 0.00 0.00 33 1010.0
20260505010042 68 201 5.2 11.3 0.00 0.00 0.00 32 1010.0
20260505004541 68 119 4.3 9.6 0.00 0.00 0.00 33 1010.0
20260505003040 68 89 5.2 8.7 0.00 0.00 0.00 33 1010.0
20260505001543 67 79 1.7 6.1 0.00 0.00 0.00 32 1009.9
20260505000039 68 37 5.2 7.8 0.00 0.00 0.00 32 1009.9
20260504234538 68 49 4.3 8.7 0.00 0.00 0.00 33 1009.6
20260504233040 69 71 4.3 9.6 0.00 0.00 0.00 31 1009.6
20260504231540 70 116 6.1 10.4 0.00 0.00 0.00 30 1009.6